| time (UTC) | temp C | wind direction | speed KPH | gust KPH | rain 1hr cm | rain 24hr cm | rain mn cm | humidity % | barometer mb |
| 20260507232530 | 15 | 66 | 1.6 | 4.8 | 0.00 | 0.33 | 0.20 | 35 | 1005.4 |
| 20260507232021 | 15 | 193 | 1.6 | 14.5 | 0.00 | 0.33 | 0.20 | 34 | 1005.3 |
| 20260507231531 | 15 | 98 | 6.4 | 14.5 | 0.00 | 0.33 | 0.20 | 33 | 1005.2 |
| 20260507231022 | 15 | 110 | 3.2 | 9.7 | 0.00 | 0.33 | 0.20 | 34 | 1005.2 |
| 20260507230533 | 15 | 62 | 3.2 | 9.7 | 0.00 | 0.33 | 0.20 | 34 | 1005.1 |
| 20260507230024 | 16 | 108 | 3.2 | 16.1 | 0.00 | 0.36 | 0.20 | 33 | 1005.0 |
| 20260507225539 | 16 | 135 | 6.4 | 16.1 | 0.00 | 0.36 | 0.20 | 32 | 1005.0 |
| 20260507225030 | 16 | 124 | 3.2 | 16.1 | 0.00 | 0.36 | 0.20 | 33 | 1005.0 |
| 20260507224520 | 16 | 203 | 4.8 | 16.1 | 0.00 | 0.36 | 0.20 | 33 | 1005.0 |
| 20260507224032 | 16 | 83 | 9.7 | 24.1 | 0.00 | 0.36 | 0.20 | 32 | 1005.0 |
| 20260507223601 | 16 | 136 | 9.7 | 24.1 | 0.00 | 0.36 | 0.20 | 32 | 1004.9 |
| 20260507223031 | 16 | 56 | 6.4 | 19.3 | 0.00 | 0.36 | 0.20 | 31 | 1004.9 |
| 20260507222542 | 16 | 150 | 6.4 | 19.3 | 0.00 | 0.36 | 0.20 | 33 | 1004.9 |
| 20260507222032 | 16 | 110 | 6.4 | 19.3 | 0.00 | 0.36 | 0.20 | 32 | 1004.8 |
| 20260507221522 | 16 | 146 | 3.2 | 14.5 | 0.00 | 0.36 | 0.20 | 33 | 1004.7 |
| 20260507221034 | 16 | 72 | 4.8 | 14.5 | 0.00 | 0.36 | 0.20 | 32 | 1004.7 |
| 20260507220529 | 17 | 155 | 4.8 | 12.9 | 0.00 | 0.36 | 0.20 | 33 | 1004.7 |
| 20260507220038 | 17 | 162 | 4.8 | 14.5 | 0.00 | 0.36 | 0.20 | 32 | 1004.6 |
| 20260507215528 | 17 | 184 | 3.2 | 17.7 | 0.00 | 0.36 | 0.20 | 33 | 1004.6 |
| 20260507215039 | 17 | 210 | 4.8 | 17.7 | 0.00 | 0.36 | 0.20 | 33 | 1004.6 |
| 20260507214531 | 17 | 198 | 8.0 | 19.3 | 0.00 | 0.36 | 0.20 | 31 | 1004.5 |
| 20260507214021 | 17 | 153 | 4.8 | 14.5 | 0.00 | 0.36 | 0.20 | 32 | 1004.5 |
| 20260507213532 | 17 | 133 | 8.0 | 14.5 | 0.00 | 0.36 | 0.20 | 32 | 1004.4 |
| 20260507213022 | 17 | 198 | 3.2 | 14.5 | 0.00 | 0.36 | 0.20 | 32 | 1004.4 |
| 20260507212536 | 17 | 55 | 4.8 | 20.9 | 0.00 | 0.36 | 0.20 | 32 | 1004.3 |
| 20260507212027 | 17 | 149 | 9.7 | 17.7 | 0.00 | 0.36 | 0.20 | 31 | 1004.4 |
| 20260507211539 | 17 | 167 | 6.4 | 14.5 | 0.00 | 0.36 | 0.20 | 32 | 1004.5 |
| 20260507211029 | 17 | 245 | 6.4 | 14.5 | 0.00 | 0.36 | 0.20 | 33 | 1004.4 |
| 20260507210540 | 17 | 104 | 6.4 | 14.5 | 0.00 | 0.36 | 0.20 | 32 | 1004.3 |
| 20260507210030 | 17 | 82 | 6.4 | 12.9 | 0.00 | 0.41 | 0.20 | 32 | 1004.3 |
| 20260507205520 | 17 | 167 | 6.4 | 12.9 | 0.00 | 0.41 | 0.20 | 32 | 1004.2 |
| 20260507205051 | 16 | 146 | 4.8 | 16.1 | 0.00 | 0.41 | 0.20 | 31 | 1004.4 |
| 20260507204521 | 17 | 143 | 6.4 | 16.1 | 0.00 | 0.41 | 0.20 | 30 | 1004.4 |
| 20260507204037 | 17 | 157 | 4.8 | 17.7 | 0.00 | 0.41 | 0.20 | 32 | 1004.3 |
| 20260507203529 | 17 | 166 | 11.3 | 17.7 | 0.00 | 0.41 | 0.20 | 31 | 1004.4 |
| 20260507203021 | 17 | 205 | 4.8 | 17.7 | 0.00 | 0.41 | 0.20 | 31 | 1004.4 |
| 20260507202531 | 17 | 141 | 8.0 | 14.5 | 0.00 | 0.41 | 0.20 | 31 | 1004.3 |
| 20260507202021 | 17 | 151 | 4.8 | 19.3 | 0.00 | 0.41 | 0.20 | 31 | 1004.3 |
| 20260507201532 | 16 | 155 | 4.8 | 19.3 | 0.00 | 0.41 | 0.20 | 31 | 1004.4 |
| 20260507201024 | 16 | 198 | 6.4 | 17.7 | 0.00 | 0.41 | 0.20 | 32 | 1004.4 |
| 20260507200534 | 16 | 146 | 8.0 | 17.7 | 0.00 | 0.41 | 0.20 | 30 | 1004.3 |
| 20260507200028 | 16 | 186 | 6.4 | 17.7 | 0.00 | 0.43 | 0.20 | 30 | 1004.4 |
| 20260507195559 | 17 | 187 | 9.7 | 16.1 | 0.00 | 0.43 | 0.20 | 31 | 1004.6 |
| 20260507195028 | 17 | 135 | 3.2 | 16.1 | 0.00 | 0.43 | 0.20 | 32 | 1004.5 |
| 20260507194539 | 17 | 165 | 8.0 | 20.9 | 0.00 | 0.43 | 0.20 | 30 | 1004.6 |
| 20260507194029 | 17 | 117 | 4.8 | 20.9 | 0.00 | 0.43 | 0.20 | 29 | 1004.6 |
| 20260507193540 | 17 | 87 | 4.8 | 17.7 | 0.00 | 0.43 | 0.20 | 33 | 1004.6 |
| 20260507193051 | 17 | 158 | 8.0 | 19.3 | 0.00 | 0.43 | 0.20 | 31 | 1004.6 |
| 20260507192601 | 17 | 111 | 8.0 | 19.3 | 0.00 | 0.43 | 0.20 | 30 | 1004.7 |
| 20260507192031 | 17 | 118 | 4.8 | 20.9 | 0.00 | 0.43 | 0.20 | 30 | 1004.7 |
| 20260507191522 | 17 | 90 | 8.0 | 20.9 | 0.00 | 0.43 | 0.20 | 29 | 1004.7 |
| 20260507191033 | 17 | 132 | 8.0 | 17.7 | 0.00 | 0.43 | 0.20 | 30 | 1004.8 |
| 20260507190548 | 17 | 108 | 8.0 | 12.9 | 0.00 | 0.43 | 0.20 | 31 | 1004.9 |
| 20260507190037 | 17 | 141 | 4.8 | 14.5 | 0.00 | 0.43 | 0.20 | 33 | 1004.7 |
| 20260507185528 | 17 | 181 | 6.4 | 20.9 | 0.00 | 0.43 | 0.20 | 32 | 1004.9 |
| 20260507185059 | 17 | 134 | 6.4 | 24.1 | 0.00 | 0.43 | 0.20 | 33 | 1004.9 |
| 20260507184528 | 17 | 70 | 8.0 | 24.1 | 0.00 | 0.43 | 0.20 | 31 | 1004.8 |
| 20260507184037 | 17 | 127 | 6.4 | 14.5 | 0.00 | 0.43 | 0.20 | 32 | 1004.8 |
| 20260507183528 | 17 | 18 | 1.6 | 22.5 | 0.00 | 0.43 | 0.20 | 36 | 1005.0 |
| 20260507183038 | 17 | 91 | 8.0 | 17.7 | 0.00 | 0.43 | 0.20 | 33 | 1005.0 |
| 20260507182529 | 17 | 148 | 8.0 | 14.5 | 0.00 | 0.43 | 0.20 | 35 | 1005.0 |
| 20260507182023 | 16 | 216 | 6.4 | 12.9 | 0.00 | 0.43 | 0.20 | 34 | 1004.9 |
| 20260507181555 | 16 | 153 | 4.8 | 14.5 | 0.00 | 0.43 | 0.20 | 35 | 1005.3 |
| 20260507181025 | 17 | 159 | 8.0 | 16.1 | 0.00 | 0.43 | 0.20 | 35 | 1005.3 |
| 20260507180555 | 17 | 91 | 4.8 | 12.9 | 0.00 | 0.43 | 0.20 | 35 | 1005.3 |
| 20260507180024 | 17 | 23 | 4.8 | 12.9 | 0.00 | 0.43 | 0.20 | 37 | 1005.3 |
| 20260507175534 | 16 | 187 | 4.8 | 20.9 | 0.00 | 0.43 | 0.20 | 38 | 1005.3 |
| 20260507175025 | 16 | 168 | 3.2 | 20.9 | 0.00 | 0.43 | 0.20 | 38 | 1005.2 |
| 20260507174535 | 16 | 91 | 6.4 | 17.7 | 0.00 | 0.43 | 0.20 | 41 | 1005.2 |
| 20260507174025 | 16 | 164 | 6.4 | 17.7 | 0.00 | 0.43 | 0.20 | 42 | 1005.3 |
| 20260507173557 | 16 | 109 | 4.8 | 12.9 | 0.00 | 0.43 | 0.20 | 41 | 1005.2 |
| 20260507173025 | 16 | 201 | 6.4 | 11.3 | 0.00 | 0.43 | 0.20 | 44 | 1005.2 |
| 20260507172556 | 16 | 143 | 4.8 | 14.5 | 0.00 | 0.43 | 0.20 | 46 | 1005.3 |
| 20260507172029 | 16 | 174 | 8.0 | 11.3 | 0.00 | 0.43 | 0.20 | 47 | 1005.4 |
| 20260507171540 | 16 | 195 | 8.0 | 17.7 | 0.00 | 0.43 | 0.20 | 47 | 1005.4 |
| 20260507171050 | 16 | 264 | 6.4 | 17.7 | 0.00 | 0.43 | 0.20 | 49 | 1005.4 |
| 20260507170539 | 16 | 40 | 6.4 | 11.3 | 0.00 | 0.43 | 0.20 | 53 | 1005.5 |
| 20260507170050 | 16 | 179 | 8.0 | 27.4 | 0.00 | 0.43 | 0.20 | 52 | 1005.4 |
| 20260507165540 | 16 | 181 | 11.3 | 27.4 | 0.00 | 0.43 | 0.20 | 51 | 1005.6 |
| 20260507165029 | 16 | 86 | 4.8 | 16.1 | 0.00 | 0.43 | 0.20 | 52 | 1005.5 |
| 20260507164558 | 15 | 100 | 6.4 | 16.1 | 0.00 | 0.43 | 0.20 | 51 | 1005.6 |
| 20260507164029 | 15 | 141 | 4.8 | 9.7 | 0.00 | 0.43 | 0.20 | 53 | 1005.8 |
| 20260507163540 | 15 | 141 | 6.4 | 12.9 | 0.00 | 0.43 | 0.20 | 54 | 1005.8 |
| 20260507163034 | 15 | 94 | 3.2 | 12.9 | 0.00 | 0.43 | 0.20 | 55 | 1005.9 |
| 20260507162524 | 16 | 105 | 3.2 | 17.7 | 0.00 | 0.43 | 0.20 | 53 | 1005.9 |
| 20260507162036 | 16 | 172 | 6.4 | 19.3 | 0.00 | 0.43 | 0.20 | 53 | 1006.0 |
| 20260507161528 | 16 | 59 | 8.0 | 20.9 | 0.00 | 0.43 | 0.20 | 51 | 1005.9 |
| 20260507161039 | 16 | 49 | 8.0 | 16.1 | 0.00 | 0.43 | 0.20 | 51 | 1006.0 |
| 20260507160530 | 16 | 96 | 4.8 | 14.5 | 0.00 | 0.43 | 0.20 | 52 | 1006.1 |
| 20260507160020 | 16 | 158 | 4.8 | 16.1 | 0.00 | 0.43 | 0.20 | 53 | 1006.2 |
| 20260507155532 | 16 | 121 | 4.8 | 16.1 | 0.00 | 0.43 | 0.20 | 53 | 1006.1 |
| 20260507155042 | 15 | 153 | 6.4 | 12.9 | 0.00 | 0.43 | 0.20 | 51 | 1006.4 |
| 20260507154552 | 15 | 76 | 4.8 | 12.9 | 0.00 | 0.43 | 0.20 | 50 | 1006.3 |
| 20260507154025 | 15 | 139 | 6.4 | 17.7 | 0.00 | 0.43 | 0.20 | 51 | 1006.3 |
| 20260507153535 | 15 | 60 | 9.7 | 17.7 | 0.00 | 0.43 | 0.20 | 50 | 1006.3 |
| 20260507153026 | 15 | 209 | 3.2 | 8.0 | 0.00 | 0.43 | 0.20 | 50 | 1006.3 |
| 20260507152538 | 15 | 136 | 4.8 | 8.0 | 0.00 | 0.43 | 0.20 | 51 | 1006.5 |
| 20260507152029 | 15 | 160 | 4.8 | 11.3 | 0.00 | 0.43 | 0.20 | 51 | 1006.6 |
| 20260507151539 | 15 | 7 | 3.2 | 14.5 | 0.00 | 0.43 | 0.20 | 52 | 1006.5 |
| 20260507151028 | 15 | 70 | 6.4 | 16.1 | 0.00 | 0.43 | 0.20 | 50 | 1006.5 |
| 20260507150620 | 15 | 101 | 6.4 | 20.9 | 0.00 | 0.43 | 0.20 | 52 | 1006.6 |
| 20260507150046 | 15 | 72 | 8.0 | 20.9 | 0.00 | 0.43 | 0.20 | 51 | 1006.7 |
| 20260507145556 | 15 | 132 | 4.8 | 12.9 | 0.00 | 0.43 | 0.20 | 55 | 1006.8 |
| 20260507145024 | 14 | 177 | 3.2 | 12.9 | 0.00 | 0.43 | 0.20 | 55 | 1006.8 |
| 20260507144539 | 14 | 139 | 6.4 | 12.9 | 0.00 | 0.43 | 0.20 | 54 | 1006.9 |
| 20260507144050 | 15 | 131 | 4.8 | 8.0 | 0.00 | 0.43 | 0.20 | 55 | 1006.9 |
| 20260507143520 | 14 | 51 | 3.2 | 9.7 | 0.00 | 0.43 | 0.20 | 56 | 1006.9 |
| 20260507143052 | 14 | 167 | 4.8 | 14.5 | 0.00 | 0.43 | 0.20 | 56 | 1007.0 |
| 20260507142542 | 14 | 120 | 6.4 | 14.5 | 0.00 | 0.43 | 0.20 | 55 | 1007.0 |
| 20260507142032 | 13 | 147 | 1.6 | 8.0 | 0.00 | 0.43 | 0.20 | 57 | 1006.9 |
| 20260507141541 | 13 | 128 | 3.2 | 11.3 | 0.00 | 0.43 | 0.20 | 57 | 1006.9 |
| 20260507141031 | 13 | 161 | 3.2 | 11.3 | 0.00 | 0.43 | 0.20 | 61 | 1006.9 |
| 20260507140522 | 13 | 72 | 3.2 | 9.7 | 0.00 | 0.43 | 0.20 | 59 | 1006.9 |
| 20260507140033 | 13 | 127 | 3.2 | 14.5 | 0.00 | 0.43 | 0.20 | 62 | 1006.9 |
| 20260507135524 | 13 | 79 | 4.8 | 11.3 | 0.00 | 0.43 | 0.20 | 59 | 1006.8 |
| 20260507135039 | 13 | 147 | 4.8 | 8.0 | 0.00 | 0.43 | 0.20 | 61 | 1006.9 |
| 20260507134530 | 13 | 231 | 3.2 | 8.0 | 0.00 | 0.43 | 0.20 | 62 | 1006.9 |
| 20260507134040 | 13 | 149 | 4.8 | 11.3 | 0.00 | 0.43 | 0.20 | 62 | 1007.0 |
| 20260507133530 | 12 | 221 | 4.8 | 11.3 | 0.00 | 0.43 | 0.20 | 64 | 1007.1 |
| 20260507133021 | 12 | 58 | 3.2 | 6.4 | 0.00 | 0.43 | 0.20 | 64 | 1007.1 |
| 20260507132531 | 12 | 137 | 4.8 | 6.4 | 0.00 | 0.43 | 0.20 | 64 | 1007.2 |
| 20260507132022 | 12 | 161 | 3.2 | 9.7 | 0.00 | 0.43 | 0.20 | 67 | 1007.3 |
| 20260507131532 | 12 | 158 | 3.2 | 8.0 | 0.00 | 0.43 | 0.20 | 69 | 1007.3 |
| 20260507131027 | 12 | 230 | 6.4 | 8.0 | 0.00 | 0.43 | 0.20 | 67 | 1007.3 |
| 20260507130540 | 11 | 90 | 4.8 | 9.7 | 0.00 | 0.43 | 0.20 | 70 | 1007.4 |
| 20260507130031 | 11 | 206 | 4.8 | 9.7 | 0.00 | 0.43 | 0.20 | 70 | 1007.4 |
| 20260507125522 | 11 | 222 | 6.4 | 12.9 | 0.00 | 0.43 | 0.20 | 71 | 1007.6 |
| 20260507125033 | 11 | 205 | 4.8 | 12.9 | 0.00 | 0.43 | 0.20 | 74 | 1007.4 |
| 20260507124522 | 11 | 241 | 4.8 | 8.0 | 0.00 | 0.43 | 0.20 | 77 | 1007.4 |
| 20260507124033 | 10 | 191 | 1.6 | 8.0 | 0.00 | 0.43 | 0.20 | 79 | 1007.4 |
| 20260507123524 | 10 | 91 | 4.8 | 8.0 | 0.00 | 0.43 | 0.20 | 81 | 1007.2 |
| 20260507123035 | 10 | 125 | 3.2 | 6.4 | 0.00 | 0.43 | 0.20 | 83 | 1007.3 |
| 20260507122530 | 10 | 195 | 1.6 | 4.8 | 0.00 | 0.43 | 0.20 | 86 | 1007.3 |
| 20260507122041 | 10 | 186 | 1.6 | 6.4 | 0.00 | 0.43 | 0.20 | 86 | 1007.3 |
| 20260507121530 | 9 | 63 | 3.2 | 6.4 | 0.00 | 0.43 | 0.20 | 87 | 1007.4 |
| 20260507121101 | 9 | 169 | 3.2 | 6.4 | 0.00 | 0.43 | 0.20 | 88 | 1007.2 |
| 20260507120532 | 9 | 174 | 4.8 | 6.4 | 0.00 | 0.43 | 0.20 | 89 | 1007.3 |
| 20260507120021 | 9 | 132 | 1.6 | 4.8 | 0.00 | 0.43 | 0.20 | 91 | 1007.3 |
| 20260507115532 | 8 | 132 | 3.2 | 4.8 | 0.00 | 0.43 | 0.20 | 91 | 1007.3 |
| 20260507115023 | 9 | 79 | 0.0 | 4.8 | 0.00 | 0.43 | 0.20 | 92 | 1007.1 |
| 20260507114533 | 8 | 79 | 1.6 | 4.8 | 0.00 | 0.43 | 0.20 | 92 | 1007.0 |
| 20260507114027 | 8 | 58 | 1.6 | 4.8 | 0.00 | 0.43 | 0.20 | 93 | 1007.3 |
| 20260507113538 | 8 | 187 | 0.0 | 0.0 | 0.00 | 0.43 | 0.20 | 93 | 1007.2 |
| 20260507113048 | 9 | 187 | 0.0 | 0.0 | 0.00 | 0.43 | 0.20 | 93 | 1007.1 |
| 20260507112538 | 8 | 187 | 0.0 | 0.0 | 0.00 | 0.43 | 0.20 | 93 | 1007.1 |
| 20260507112049 | 9 | 187 | 0.0 | 0.0 | 0.00 | 0.43 | 0.20 | 93 | 1007.0 |
| 20260507111520 | 9 | 187 | 0.0 | 0.0 | 0.00 | 0.43 | 0.20 | 93 | 1007.0 |
| 20260507111031 | 9 | 187 | 0.0 | 0.0 | 0.00 | 0.43 | 0.20 | 93 | 1007.0 |
| 20260507110523 | 8 | 187 | 0.0 | 0.0 | 0.03 | 0.43 | 0.20 | 93 | 1007.1 |
| 20260507110034 | 8 | 187 | 0.0 | 0.0 | 0.03 | 0.43 | 0.20 | 93 | 1007.2 |
| 20260507105524 | 8 | 187 | 0.0 | 0.0 | 0.05 | 0.43 | 0.20 | 93 | 1007.3 |
| 20260507105039 | 8 | 187 | 0.0 | 0.0 | 0.05 | 0.43 | 0.20 | 93 | 1007.3 |
| 20260507104529 | 8 | 187 | 0.0 | 0.0 | 0.05 | 0.43 | 0.20 | 92 | 1007.1 |
| 20260507104100 | 9 | 187 | 0.0 | 0.0 | 0.05 | 0.43 | 0.20 | 93 | 1007.2 |
| 20260507103551 | 9 | 187 | 0.0 | 0.0 | 0.05 | 0.43 | 0.20 | 92 | 1006.9 |
| 20260507103021 | 8 | 187 | 0.0 | 0.0 | 0.08 | 0.43 | 0.20 | 92 | 1006.7 |
| 20260507102531 | 8 | 187 | 0.0 | 0.0 | 0.10 | 0.43 | 0.20 | 92 | 1006.8 |
| 20260507102021 | 8 | 187 | 0.0 | 0.0 | 0.13 | 0.43 | 0.20 | 92 | 1006.9 |
| 20260507101552 | 8 | 187 | 0.0 | 0.0 | 0.13 | 0.43 | 0.20 | 92 | 1006.8 |
| 20260507101022 | 9 | 187 | 0.0 | 0.0 | 0.13 | 0.43 | 0.20 | 92 | 1006.7 |
| 20260507100532 | 9 | 187 | 0.0 | 0.0 | 0.10 | 0.41 | 0.18 | 91 | 1006.5 |
| 20260507100027 | 9 | 187 | 0.0 | 1.6 | 0.13 | 0.41 | 0.18 | 91 | 1006.5 |
| 20260507095539 | 9 | 187 | 0.0 | 3.2 | 0.10 | 0.38 | 0.15 | 91 | 1006.4 |
| 20260507095030 | 9 | 187 | 0.0 | 3.2 | 0.10 | 0.38 | 0.15 | 91 | 1006.3 |
| 20260507094540 | 9 | 187 | 0.0 | 3.2 | 0.10 | 0.38 | 0.15 | 91 | 1006.5 |
| 20260507094030 | 9 | 185 | 1.6 | 3.2 | 0.10 | 0.38 | 0.15 | 90 | 1006.7 |
| 20260507093521 | 9 | 96 | 1.6 | 3.2 | 0.10 | 0.38 | 0.15 | 90 | 1006.5 |
| 20260507093033 | 9 | 96 | 1.6 | 3.2 | 0.08 | 0.36 | 0.13 | 89 | 1006.5 |
| 20260507092524 | 10 | 113 | 0.0 | 3.2 | 0.05 | 0.33 | 0.10 | 89 | 1006.5 |
| 20260507092035 | 10 | 113 | 1.6 | 9.7 | 0.03 | 0.30 | 0.08 | 89 | 1006.6 |
| 20260507091530 | 10 | 105 | 3.2 | 9.7 | 0.03 | 0.30 | 0.08 | 88 | 1006.5 |
| 20260507091040 | 10 | 127 | 3.2 | 8.0 | 0.03 | 0.30 | 0.08 | 88 | 1006.8 |
| 20260507090529 | 10 | 105 | 3.2 | 8.0 | 0.03 | 0.28 | 0.05 | 87 | 1006.7 |
| 20260507090021 | 10 | 41 | 1.6 | 9.7 | 0.03 | 0.28 | 0.05 | 87 | 1006.5 |
| 20260507085532 | 10 | 199 | 3.2 | 6.4 | 0.03 | 0.28 | 0.05 | 87 | 1006.5 |
| 20260507085042 | 10 | 189 | 1.6 | 4.8 | 0.05 | 0.28 | 0.05 | 87 | 1006.5 |
| 20260507084532 | 10 | 143 | 1.6 | 4.8 | 0.05 | 0.28 | 0.05 | 87 | 1006.3 |
| 20260507084022 | 10 | 68 | 1.6 | 4.8 | 0.05 | 0.28 | 0.05 | 87 | 1006.3 |
| 20260507083532 | 10 | 161 | 1.6 | 6.4 | 0.05 | 0.28 | 0.05 | 87 | 1006.2 |
| 20260507083027 | 10 | 124 | 1.6 | 8.0 | 0.05 | 0.28 | 0.05 | 86 | 1006.1 |
| 20260507082538 | 10 | 193 | 4.8 | 8.0 | 0.05 | 0.28 | 0.05 | 86 | 1006.0 |
| 20260507082049 | 10 | 94 | 0.0 | 11.3 | 0.05 | 0.28 | 0.05 | 86 | 1005.9 |
| 20260507081538 | 10 | 93 | 1.6 | 11.3 | 0.05 | 0.28 | 0.05 | 86 | 1006.2 |
| 20260507081029 | 10 | 150 | 4.8 | 9.7 | 0.05 | 0.28 | 0.05 | 86 | 1006.3 |
| 20260507080519 | 10 | 157 | 6.4 | 12.9 | 0.03 | 0.25 | 0.03 | 86 | 1006.3 |
| 20260507080030 | 11 | 132 | 6.4 | 14.5 | 0.03 | 0.25 | 0.03 | 85 | 1006.3 |
| 20260507075520 | 11 | 176 | 4.8 | 17.7 | 0.03 | 0.25 | 0.03 | 83 | 1006.0 |
| 20260507075032 | 11 | 116 | 4.8 | 17.7 | 0.00 | 0.23 | 0.00 | 83 | 1006.2 |
| 20260507074527 | 11 | 148 | 6.4 | 14.5 | 0.00 | 0.23 | 0.00 | 82 | 1006.2 |
| 20260507074037 | 11 | 127 | 3.2 | 6.4 | 0.00 | 0.23 | 0.00 | 84 | 1005.9 |
| 20260507073527 | 11 | 239 | 3.2 | 9.7 | 0.00 | 0.23 | 0.00 | 84 | 1005.6 |
| 20260507073058 | 11 | 262 | 4.8 | 9.7 | 0.00 | 0.23 | 0.00 | 83 | 1005.6 |
| 20260507072527 | 11 | 70 | 3.2 | 8.0 | 0.00 | 0.23 | 0.00 | 84 | 1005.7 |
| 20260507072038 | 11 | 150 | 4.8 | 8.0 | 0.00 | 0.23 | 0.00 | 85 | 1005.6 |
| 20260507071529 | 11 | 53 | 3.2 | 11.3 | 0.00 | 0.23 | 0.00 | 85 | 1005.8 |
| 20260507071020 | 11 | 144 | 4.8 | 11.3 | 0.00 | 0.23 | 0.00 | 86 | 1005.6 |
| 20260507070532 | 12 | 222 | 1.6 | 4.8 | 0.00 | 0.23 | 0.00 | 87 | 1005.5 |
| 20260507070048 | 12 | 143 | 3.2 | 6.4 | 0.00 | 0.23 | 0.00 | 86 | 1005.4 |
| 20260507065536 | 12 | 139 | 1.6 | 8.0 | 0.00 | 0.23 | 0.00 | 86 | 1005.6 |
| 20260507065028 | 12 | 131 | 3.2 | 8.0 | 0.00 | 0.23 | 0.00 | 86 | 1005.6 |
| 20260507064539 | 12 | 33 | 1.6 | 6.4 | 0.00 | 0.23 | 0.00 | 86 | 1005.5 |
| 20260507064030 | 12 | 33 | 1.6 | 11.3 | 0.00 | 0.23 | 0.00 | 86 | 1005.5 |
| 20260507063600 | 12 | 181 | 6.4 | 11.3 | 0.00 | 0.23 | 0.00 | 87 | 1005.4 |
| 20260507063028 | 12 | 176 | 4.8 | 9.7 | 0.00 | 0.23 | 0.00 | 87 | 1005.3 |
| 20260507062600 | 12 | 159 | 4.8 | 12.9 | 0.00 | 0.23 | 0.00 | 87 | 1005.2 |
| 20260507062029 | 12 | 93 | 6.4 | 12.9 | 0.00 | 0.23 | 0.00 | 87 | 1005.4 |
| 20260507061539 | 12 | 160 | 3.2 | 9.7 | 0.00 | 0.23 | 0.00 | 87 | 1005.4 |
| 20260507061034 | 12 | 214 | 3.2 | 8.0 | 0.00 | 0.23 | 0.00 | 87 | 1005.4 |
| 20260507060524 | 12 | 168 | 1.6 | 6.4 | 0.00 | 0.23 | 0.00 | 87 | 1005.6 |
| 20260507060036 | 12 | 129 | 4.8 | 14.5 | 0.00 | 0.23 | 0.00 | 87 | 1005.5 |
| 20260507055527 | 13 | 112 | 4.8 | 16.1 | 0.00 | 0.23 | 0.00 | 88 | 1005.5 |
| 20260507055037 | 13 | 70 | 3.2 | 12.9 | 0.00 | 0.23 | 0.00 | 89 | 1005.7 |
| 20260507054527 | 13 | 229 | 3.2 | 4.8 | 0.00 | 0.23 | 0.00 | 89 | 1005.7 |
| 20260507054059 | 13 | 130 | 3.2 | 6.4 | 0.00 | 0.23 | 0.00 | 89 | 1005.7 |
| 20260507053529 | 13 | 195 | 1.6 | 12.9 | 0.00 | 0.23 | 0.00 | 89 | 1005.6 |
| 20260507053039 | 13 | 105 | 4.8 | 12.9 | 0.00 | 0.23 | 0.00 | 89 | 1005.5 |
| 20260507052533 | 13 | 77 | 3.2 | 11.3 | 0.00 | 0.23 | 0.00 | 89 | 1005.3 |
| 20260507052022 | 13 | 188 | 4.8 | 9.7 | 0.00 | 0.23 | 0.00 | 90 | 1005.2 |
| 20260507051534 | 13 | 185 | 3.2 | 14.5 | 0.00 | 0.23 | 0.00 | 90 | 1005.5 |
| 20260507051025 | 13 | 205 | 3.2 | 14.5 | 0.00 | 0.23 | 0.00 | 90 | 1005.4 |
| 20260507050536 | 14 | 129 | 4.8 | 14.5 | 0.00 | 0.23 | 0.00 | 89 | 1005.5 |
| 20260507050046 | 14 | 143 | 8.0 | 14.5 | 0.00 | 0.23 | 0.00 | 89 | 1005.6 |
| 20260507045536 | 14 | 136 | 8.0 | 12.9 | 0.00 | 0.23 | 0.00 | 89 | 1005.5 |
| 20260507045026 | 14 | 68 | 4.8 | 12.9 | 0.00 | 0.23 | 0.00 | 91 | 1005.4 |
| 20260507044537 | 15 | 190 | 1.6 | 8.0 | 0.00 | 0.23 | 0.00 | 92 | 1005.3 |
| 20260507044047 | 15 | 77 | 1.6 | 6.4 | 0.00 | 0.23 | 0.00 | 93 | 1005.1 |
| 20260507043521 | 15 | 94 | 3.2 | 16.1 | 0.00 | 0.23 | 0.00 | 93 | 1005.3 |
| 20260507043031 | 15 | 174 | 4.8 | 16.1 | 0.00 | 0.23 | 0.00 | 93 | 1005.5 |
| 20260507042522 | 15 | 74 | 3.2 | 9.7 | 0.00 | 0.23 | 0.00 | 93 | 1005.3 |
| 20260507042033 | 15 | 91 | 3.2 | 9.7 | 0.00 | 0.23 | 0.00 | 94 | 1005.4 |
| 20260507041524 | 15 | 25 | 1.6 | 9.7 | 0.00 | 0.23 | 0.00 | 94 | 1005.3 |
| 20260507041033 | 15 | 54 | 3.2 | 8.0 | 0.00 | 0.23 | 0.00 | 94 | 1005.5 |
| 20260507040523 | 15 | 89 | 4.8 | 9.7 | 0.00 | 0.23 | 0.00 | 94 | 1005.5 |
| 20260507040031 | 15 | 90 | 3.2 | 12.9 | 0.00 | 0.23 | 0.23 | 94 | 1005.5 |
| 20260507035541 | 15 | 45 | 3.2 | 12.9 | 0.00 | 0.23 | 0.23 | 94 | 1005.4 |
| 20260507035034 | 15 | 72 | 8.0 | 14.5 | 0.00 | 0.23 | 0.23 | 94 | 1005.2 |
| 20260507034525 | 15 | 70 | 4.8 | 16.1 | 0.00 | 0.23 | 0.23 | 93 | 1005.3 |
| 20260507034034 | 15 | 28 | 3.2 | 16.1 | 0.00 | 0.23 | 0.23 | 93 | 1005.5 |
| 20260507033524 | 15 | 111 | 4.8 | 17.7 | 0.00 | 0.23 | 0.23 | 93 | 1005.4 |
| 20260507033034 | 15 | 80 | 6.4 | 17.7 | 0.00 | 0.23 | 0.23 | 93 | 1005.2 |
| 20260507032525 | 15 | 66 | 4.8 | 14.5 | 0.00 | 0.23 | 0.23 | 92 | 1005.0 |
| 20260507032056 | 15 | 80 | 3.2 | 14.5 | 0.00 | 0.23 | 0.23 | 92 | 1004.8 |
| 20260507031526 | 15 | 43 | 6.4 | 11.3 | 0.00 | 0.23 | 0.23 | 92 | 1004.7 |
| 20260507031038 | 15 | 37 | 4.8 | 9.7 | 0.00 | 0.23 | 0.23 | 92 | 1004.7 |
| 20260507030532 | 15 | 58 | 3.2 | 8.0 | 0.00 | 0.23 | 0.23 | 92 | 1004.6 |
| 20260507030022 | 15 | 340 | 3.2 | 20.9 | 0.00 | 0.23 | 0.23 | 92 | 1004.6 |
| 20260507025552 | 15 | 88 | 4.8 | 20.9 | 0.00 | 0.23 | 0.23 | 92 | 1004.8 |
| 20260507025021 | 15 | 34 | 3.2 | 12.9 | 0.00 | 0.23 | 0.23 | 92 | 1004.7 |
| 20260507024532 | 15 | 54 | 4.8 | 11.3 | 0.00 | 0.23 | 0.23 | 92 | 1004.8 |
| 20260507024024 | 15 | 55 | 6.4 | 11.3 | 0.00 | 0.23 | 0.23 | 92 | 1004.8 |
| 20260507023535 | 15 | 14 | 3.2 | 14.5 | 0.00 | 0.23 | 0.23 | 92 | 1004.9 |
| 20260507023025 | 15 | 103 | 3.2 | 14.5 | 0.00 | 0.23 | 0.23 | 92 | 1005.0 |
| 20260507022536 | 15 | 42 | 1.6 | 12.9 | 0.00 | 0.23 | 0.23 | 92 | 1005.0 |
| 20260507022032 | 15 | 51 | 3.2 | 17.7 | 0.00 | 0.23 | 0.23 | 92 | 1005.0 |
| 20260507021523 | 15 | 65 | 6.4 | 17.7 | 0.00 | 0.23 | 0.23 | 93 | 1004.9 |
| 20260507021033 | 15 | 44 | 3.2 | 17.7 | 0.00 | 0.23 | 0.23 | 93 | 1004.9 |
| 20260507020524 | 14 | 51 | 8.0 | 17.7 | 0.00 | 0.23 | 0.23 | 93 | 1005.0 |
| 20260507020035 | 14 | 79 | 4.8 | 17.7 | 0.00 | 0.23 | 0.23 | 93 | 1005.1 |
| 20260507015526 | 14 | 61 | 6.4 | 19.3 | 0.00 | 0.23 | 0.23 | 93 | 1005.1 |
| 20260507015035 | 14 | 60 | 6.4 | 19.3 | 0.00 | 0.23 | 0.23 | 93 | 1005.2 |
| 20260507014526 | 14 | 332 | 3.2 | 14.5 | 0.00 | 0.23 | 0.23 | 93 | 1005.0 |
| 20260507014021 | 14 | 40 | 4.8 | 14.5 | 0.00 | 0.23 | 0.23 | 93 | 1005.2 |
| 20260507013532 | 14 | 50 | 4.8 | 20.9 | 0.00 | 0.23 | 0.23 | 93 | 1005.2 |
| 20260507013022 | 14 | 53 | 1.6 | 20.9 | 0.00 | 0.23 | 0.23 | 93 | 1005.2 |
| 20260507012534 | 14 | 33 | 8.0 | 19.3 | 0.00 | 0.23 | 0.23 | 93 | 1005.3 |
| 20260507012025 | 14 | 80 | 6.4 | 19.3 | 0.00 | 0.23 | 0.23 | 93 | 1005.3 |
| 20260507011557 | 14 | 41 | 3.2 | 19.3 | 0.00 | 0.23 | 0.23 | 93 | 1005.3 |
| 20260507011027 | 13 | 40 | 1.6 | 14.5 | 0.00 | 0.23 | 0.23 | 93 | 1005.3 |
| 20260507010539 | 13 | 49 | 1.6 | 16.1 | 0.03 | 0.23 | 0.23 | 93 | 1005.4 |
| 20260507010028 | 13 | 65 | 4.8 | 16.1 | 0.03 | 0.23 | 0.23 | 93 | 1005.4 |
| 20260507005558 | 13 | 30 | 6.4 | 12.9 | 0.03 | 0.23 | 0.23 | 93 | 1005.3 |
| 20260507005032 | 13 | 54 | 3.2 | 16.1 | 0.03 | 0.23 | 0.23 | 94 | 1005.3 |
| 20260507004522 | 13 | 15 | 6.4 | 19.3 | 0.03 | 0.23 | 0.23 | 94 | 1005.4 |
| 20260507004033 | 13 | 24 | 3.2 | 19.3 | 0.03 | 0.23 | 0.23 | 94 | 1005.5 |
| 20260507003523 | 13 | 41 | 3.2 | 16.1 | 0.08 | 0.23 | 0.23 | 94 | 1005.4 |
| 20260507003034 | 13 | 31 | 4.8 | 14.5 | 0.08 | 0.23 | 0.23 | 94 | 1005.4 |
| 20260507002526 | 13 | 350 | 4.8 | 19.3 | 0.10 | 0.23 | 0.23 | 93 | 1005.3 |
| 20260507002036 | 13 | 60 | 6.4 | 19.3 | 0.13 | 0.23 | 0.23 | 93 | 1005.2 |
| 20260507001526 | 13 | 31 | 6.4 | 25.7 | 0.13 | 0.23 | 0.23 | 93 | 1005.2 |
| 20260507001019 | 13 | 24 | 6.4 | 25.7 | 0.13 | 0.23 | 0.23 | 93 | 1005.1 |
| 20260507000531 | 13 | 357 | 1.6 | 12.9 | 0.10 | 0.20 | 0.20 | 93 | 1005.2 |
| 20260507000023 | 13 | 39 | 6.4 | 14.5 | 0.10 | 0.20 | 0.20 | 93 | 1005.2 |
| 20260506235533 | 13 | 307 | 3.2 | 14.5 | 0.10 | 0.20 | 0.20 | 93 | 1005.3 |
| 20260506235024 | 13 | 360 | 3.2 | 9.7 | 0.10 | 0.20 | 0.20 | 93 | 1005.3 |
| 20260506234535 | 13 | 299 | 4.8 | 11.3 | 0.10 | 0.20 | 0.20 | 93 | 1005.2 |
| 20260506234025 | 13 | 49 | 4.8 | 17.7 | 0.10 | 0.20 | 0.20 | 92 | 1005.2 |
| 20260506233537 | 13 | 84 | 6.4 | 17.7 | 0.05 | 0.15 | 0.15 | 92 | 1005.2 |
| 20260506233027 | 13 | 336 | 4.8 | 14.5 | 0.05 | 0.15 | 0.15 | 92 | 1005.1 |